Flag for Switzerland Weather past 2 weeks in Illnau-Effretikon, Zurich, Switzerland

Now
49 °F

Cool.


Feels Like: 48 °F
Forecast: 37 / 57 °F
Wind: 3 mph from Northeast

Location: Zurich Town / Ville.

Current Time: Oct 26, 2014 at 8:59:41 AM

Latest Report: Oct 26, 2014 at 8:00 AM


Visibility: N/A

Pressure: 30.30 "Hg

Humidity: 94%

Dew point: 47 °F

Location of Illnau-EffretikonLocation

Historic Weather in Illnau-Effretikon — Graph

°F

Illnau-Effretikon temperature yesterday

Maximum temperature yesterday: 52 °F (at 5:00 PM)
Minimum temperature yesterday: 44 °F (at 1:00 AM)
Average temperature yesterday: 48 °F

Past Weeks' High & Low Weather Summary

 TemperatureHumidityPressure
High70 °F (Oct 19, 4:00 PM)100% (Oct 18, 6:00 AM)30.34 "Hg (Oct 18, 6:00 AM)
Low37 °F (Oct 24, 5:00 AM)53% (Oct 21, 4:00 PM)29.74 "Hg (Oct 21, 7:00 PM)
Average54 °F85%30.04 "Hg
* Reported Oct 11 8:00 AM — Oct 26 7:00 AM, Illnau-Effretikon, Weather by CustomWeather, © 2014

Note: Actual official high and low records may vary slightly from our data, if they occured in-between our weather recording intervals... More about our weather records

Advertising

Illnau-Effretikon weather history for previous 24 hours

 ConditionsComfort  
Time TempWeatherWind HumidityBarometerVisibility
7:00 AM
Oct 26
48 °FCool.3 mph96%30.29 "HgN/A
6:00 AM48 °FCool.5 mph95%30.29 "HgN/A
5:00 AM49 °FCool.2 mph94%30.28 "HgN/A
4:00 AM49 °FCool.1 mph91%30.27 "HgN/A
3:00 AM49 °FCool.2 mph94%30.28 "HgN/A
2:00 AM49 °FCool.1 mph94%30.28 "HgN/A
2:00 AM49 °FCool.1 mph95%30.27 "HgN/A
1:00 AM49 °FCool.1 mph94%30.27 "HgN/A
12:00 AM49 °FCool.2 mph96%30.26 "HgN/A
11:00 PM
Oct 25
49 °FCool.1 mph94%30.24 "HgN/A
10:00 PM50 °FCool.1 mph92%30.24 "HgN/A
9:00 PM50 °FCool.1 mph86%30.22 "HgN/A
8:00 PM50 °FCool.2 mph83%30.21 "HgN/A
7:00 PM51 °FCool.2 mph83%30.19 "HgN/A
6:00 PM51 °FCool.1 mph85%30.18 "HgN/A
5:00 PM52 °FCool.2 mph80%30.17 "HgN/A
4:00 PM52 °FCool.2 mph80%30.16 "HgN/A
3:00 PM52 °FCool.1 mph77%30.16 "HgN/A
2:00 PM52 °FCool.2 mph75%30.16 "HgN/A
1:00 PM51 °FCool.2 mph82%30.16 "HgN/A
12:00 PM49 °FCool.1 mph85%30.17 "HgN/A
11:00 AM47 °FCool.1 mph84%30.17 "HgN/A
10:00 AM46 °FCool.1 mph93%30.17 "HgN/A
9:00 AM46 °FCool.No wind92%30.18 "HgN/A
8:00 AM45 °FOvercast.1 mph94%30.16 "HgN/A
Weather by CustomWeather, © 2014

See weather overviewHow to use our weather pages